Location: Namasale
(1.5000°N, 32.6167°E)
Time: 16:21:14
(UTC+00:00)

Transit 2A - Visible Passes

Search period start: 11 April 2021 00:00
Search period end: 21 April 2021 00:00
Orbit: 602 x 957 km, 66.7° (Epoch: 11 April)

Date Brightness Start Highest point End Pass type
(mag) Time Alt. Az. Time Alt. Az. Time Alt. Az.
11 Apr 6.5 16:46:51 10° N 16:51:14 34° ENE 16:53:45 22° ESE visible
11 Apr 8.6 18:31:37 10° W 18:34:16 14° WSW 18:34:22 14° WSW visible
12 Apr 7.2 16:13:37 10° NNE 16:17:10 20° ENE 16:20:57 10° ESE visible
12 Apr 8.0 17:56:02 10° WNW 18:00:02 24° WSW 18:02:53 16° SSW visible
13 Apr 7.2 17:21:12 10° NW 17:25:50 41° WSW 17:30:57 10° S visible
14 Apr 6.2 16:46:46 10° NNW 16:51:39 71° WSW 16:57:07 10° SSE visible
15 Apr 6.0 16:12:40 10° NNW 16:17:32 67° ENE 16:22:57 10° SSE visible
16 Apr 9.1 03:08:51 10° SE 03:11:13 13° ESE 03:13:31 10° E visible
16 Apr 8.9 17:24:13 10° W 17:26:32 13° WSW 17:28:55 10° SW visible
17 Apr 8.4 16:48:23 10° WNW 16:52:16 22° WSW 16:56:28 10° SSW visible
18 Apr 7.6 16:13:27 10° NW 16:18:04 37° WSW 16:23:09 10° S visible
19 Apr 7.5 03:06:40 10° S 03:11:55 39° ESE 03:16:41 10° NE visible
20 Apr 8.3 02:33:18 10° SSE 02:37:43 23° ESE 02:41:48 10° ENE visible
